History for KIDP

Independence, KS

Daily Weekly Monthly
Daily Summary for Sunday, March 17, 2019
  Actual: Average: Record:
Temperature
Mean Temperature: 47 °F / 8 °C 48 °F / 9 °C :  
Max Temperature: 62 °F / 17 °C 59 °F / 15 °C 84 °F / 28 °C (1994)
Min Temperature: 32 °F / 0 °C 37 °F / 3 °C 12 °F / -11 °C (1941)
Degree Days
Heating Degree Days: 18 18  
Month to date heating degree days 345  
Since 1 July heating degree days 3917  
Cooling Degree Days 0 0  
Month to date cooling degree days 0  
Year to date cooling degree days 0  
Moisture
Dew Point 30 °F / -1 °C    
Average Humidity 54    
Maximum Humidity 90    
Minimum Humidity 29    
Precipitation
Precipitation 0.00 in / 0.00 cm 0.10 in / 2.54 cm 1.50 in / 3.81 cm (1987)
Month to date precipitation 1.58  
Year to date precipitation 4.74  
Sea Level Pressure
Sea Level Pressure 30.32 in / 1027 hPa   
Wind
Wind Speed 6 mph / 10 km/h (NE)  
Max Wind Speed 12 mph / 19 km/h   
Max Gust Speed -   
Visibility 10 miles / 16 kilometers   
Events     

Click here for data from the nearest station with official NWS data (KCNU).
Key: T is trace of precipitation, MM is missing value
Source: NWS Daily Summary

Graphs

Observations

History Graphs Observations

Obs Go Here...

Features

Weather Apps

WunderRadio

Weather Underground Apps
Check out our wide variety of mobile and setup applications.

Weather Underground Applications

Top of Page

© Copyright 2019
The Weather Company, LLC
Time(CDT)TemperatureDew PointHumidity Sea Level Pressure Visibility Wind DirectionWind SpeedGust SpeedPrecipitationEvents Conditions
12:15 AM 43.0 °F / 6.1 °C 28.6 °F / -1.9 °C 57% 30.33 in / 1027.0 hPa 10.0 miles / 16.1 kilometers SSW 6.9 mph / 11.1 km/h - N/A   Clear
12:35 AM 40.5 °F / 4.7 °C 29.3 °F / -1.5 °C 64% 30.33 in / 1027.0 hPa 10.0 miles / 16.1 kilometers SSW 6.9 mph / 11.1 km/h - N/A   Clear
12:55 AM 39.0 °F / 3.9 °C 30.0 °F / -1.1 °C 70% 30.34 in / 1027.3 hPa 10.0 miles / 16.1 kilometers NNW 11.5 mph / 18.5 km/h - N/A   Scattered Clouds
1:15 AM 41.7 °F / 5.4 °C 31.1 °F / -0.5 °C 66% 30.34 in / 1027.3 hPa 10.0 miles / 16.1 kilometers NW 10.4 mph / 16.7 km/h - N/A   Scattered Clouds
1:35 AM 45.1 °F / 7.3 °C 28.8 °F / -1.8 °C 53% 30.34 in / 1027.3 hPa 10.0 miles / 16.1 kilometers WNW 6.9 mph / 11.1 km/h - N/A   Scattered Clouds
1:55 AM 41.9 °F / 5.5 °C 28.6 °F / -1.9 °C 59% 30.34 in / 1027.3 hPa 10.0 miles / 16.1 kilometers WNW 8.1 mph / 13.0 km/h - N/A   Scattered Clouds
2:15 AM 39.7 °F / 4.3 °C 28.9 °F / -1.7 °C 65% 30.34 in / 1027.3 hPa 10.0 miles / 16.1 kilometers Calm Calm - N/A   Clear
2:35 AM 41.4 °F / 5.2 °C 30.4 °F / -0.9 °C 65% 30.35 in / 1027.7 hPa 10.0 miles / 16.1 kilometers North 4.6 mph / 7.4 km/h - N/A   Clear
2:55 AM 40.8 °F / 4.9 °C 29.8 °F / -1.2 °C 65% 30.35 in / 1027.7 hPa 10.0 miles / 16.1 kilometers Calm Calm - N/A   Clear
3:15 AM 41.7 °F / 5.4 °C 30.2 °F / -1.0 °C 64% 30.35 in / 1027.7 hPa 10.0 miles / 16.1 kilometers NW 3.5 mph / 5.6 km/h - N/A   Scattered Clouds
3:35 AM 40.5 °F / 4.7 °C 30.6 °F / -0.8 °C 68% 30.35 in / 1027.7 hPa 10.0 miles / 16.1 kilometers NW 3.5 mph / 5.6 km/h - N/A   Scattered Clouds
3:55 AM 38.8 °F / 3.8 °C 30.4 °F / -0.9 °C 72% 30.34 in / 1027.3 hPa 10.0 miles / 16.1 kilometers WNW 6.9 mph / 11.1 km/h - N/A   Mostly Cloudy
4:15 AM 37.2 °F / 2.9 °C 30.7 °F / -0.7 °C 77% 30.34 in / 1027.3 hPa 10.0 miles / 16.1 kilometers NNW 5.8 mph / 9.3 km/h - N/A   Scattered Clouds
4:35 AM 35.8 °F / 2.1 °C 29.8 °F / -1.2 °C 79% 30.34 in / 1027.3 hPa 10.0 miles / 16.1 kilometers North 8.1 mph / 13.0 km/h - N/A   Clear
4:55 AM 36.5 °F / 2.5 °C 30.7 °F / -0.7 °C 80% 30.34 in / 1027.3 hPa 10.0 miles / 16.1 kilometers North 3.5 mph / 5.6 km/h - N/A   Clear
5:15 AM 37.0 °F / 2.8 °C 30.9 °F / -0.6 °C 79% 30.34 in / 1027.3 hPa 10.0 miles / 16.1 kilometers Calm Calm - N/A   Clear
5:35 AM 38.1 °F / 3.4 °C 31.5 °F / -0.3 °C 77% 30.34 in / 1027.3 hPa 10.0 miles / 16.1 kilometers NNW 3.5 mph / 5.6 km/h - N/A   Clear
5:55 AM 36.3 °F / 2.4 °C 30.9 °F / -0.6 °C 81% 30.35 in / 1027.7 hPa 10.0 miles / 16.1 kilometers NNW 5.8 mph / 9.3 km/h - N/A   Clear
6:15 AM 36.0 °F / 2.2 °C 30.7 °F / -0.7 °C 81% 30.35 in / 1027.7 hPa 10.0 miles / 16.1 kilometers North 4.6 mph / 7.4 km/h - N/A   Clear
6:35 AM 32.7 °F / 0.4 °C 29.1 °F / -1.6 °C 87% 30.36 in / 1028.0 hPa 10.0 miles / 16.1 kilometers Calm Calm - N/A   Clear
6:55 AM 35.1 °F / 1.7 °C 30.2 °F / -1.0 °C 82% 30.36 in / 1028.0 hPa 10.0 miles / 16.1 kilometers Calm Calm - N/A   Clear
7:15 AM 32.5 °F / 0.3 °C 28.9 °F / -1.7 °C 87% 30.36 in / 1028.0 hPa 10.0 miles / 16.1 kilometers Calm Calm - N/A   Clear
7:35 AM 32.4 °F / 0.2 °C 29.8 °F / -1.2 °C 90% 30.36 in / 1028.0 hPa 10.0 miles / 16.1 kilometers NNE 3.5 mph / 5.6 km/h - N/A   Clear
7:55 AM 33.3 °F / 0.7 °C 30.0 °F / -1.1 °C 88% 30.37 in / 1028.3 hPa 10.0 miles / 16.1 kilometers NNE 4.6 mph / 7.4 km/h - N/A   Clear
8:15 AM 33.6 °F / 0.9 °C 29.7 °F / -1.3 °C 85% 30.37 in / 1028.3 hPa 10.0 miles / 16.1 kilometers NNE 6.9 mph / 11.1 km/h - N/A   Clear
8:35 AM 38.1 °F / 3.4 °C 31.8 °F / -0.1 °C 78% 30.37 in / 1028.3 hPa 10.0 miles / 16.1 kilometers NE 5.8 mph / 9.3 km/h - N/A   Clear
8:55 AM 39.7 °F / 4.3 °C 32.4 °F / 0.2 °C 75% 30.38 in / 1028.7 hPa 10.0 miles / 16.1 kilometers NNE 4.6 mph / 7.4 km/h - N/A   Clear
9:15 AM 41.2 °F / 5.1 °C 32.4 °F / 0.2 °C 71% 30.38 in / 1028.7 hPa 10.0 miles / 16.1 kilometers NE 9.2 mph / 14.8 km/h - N/A   Clear
9:35 AM 43.7 °F / 6.5 °C 33.4 °F / 0.8 °C 67% 30.38 in / 1028.7 hPa 10.0 miles / 16.1 kilometers NE 10.4 mph / 16.7 km/h - N/A   Clear
9:55 AM 44.8 °F / 7.1 °C 32.9 °F / 0.5 °C 63% 30.38 in / 1028.7 hPa 10.0 miles / 16.1 kilometers NE 9.2 mph / 14.8 km/h - N/A   Clear
10:15 AM 46.6 °F / 8.1 °C 33.3 °F / 0.7 °C 60% 30.39 in / 1029.0 hPa 10.0 miles / 16.1 kilometers NE 8.1 mph / 13.0 km/h - N/A   Clear
10:35 AM 48.6 °F / 9.2 °C 31.3 °F / -0.4 °C 51% 30.39 in / 1029.0 hPa 10.0 miles / 16.1 kilometers ENE 9.2 mph / 14.8 km/h - N/A   Clear
10:55 AM 50.7 °F / 10.4 °C 31.3 °F / -0.4 °C 47% 30.39 in / 1029.0 hPa 10.0 miles / 16.1 kilometers ENE 8.1 mph / 13.0 km/h - N/A   Clear
11:15 AM 51.4 °F / 10.8 °C 30.7 °F / -0.7 °C 45% 30.38 in / 1028.7 hPa 10.0 miles / 16.1 kilometers NE 8.1 mph / 13.0 km/h - N/A   Clear
11:35 AM 52.0 °F / 11.1 °C 30.6 °F / -0.8 °C 44% 30.38 in / 1028.7 hPa 10.0 miles / 16.1 kilometers NE 5.8 mph / 9.3 km/h - N/A   Clear
11:55 AM 54.5 °F / 12.5 °C 32.5 °F / 0.3 °C 43% 30.37 in / 1028.3 hPa 10.0 miles / 16.1 kilometers ESE 5.8 mph / 9.3 km/h - N/A   Clear
12:15 PM 55.0 °F / 12.8 °C 30.9 °F / -0.6 °C 40% 30.36 in / 1028.0 hPa 10.0 miles / 16.1 kilometers ENE 3.5 mph / 5.6 km/h - N/A   Clear
12:35 PM 55.9 °F / 13.3 °C 30.9 °F / -0.6 °C 39% 30.36 in / 1028.0 hPa 10.0 miles / 16.1 kilometers East 5.8 mph / 9.3 km/h - N/A   Clear
12:55 PM 56.7 °F / 13.7 °C 29.5 °F / -1.4 °C 35% 30.35 in / 1027.7 hPa 10.0 miles / 16.1 kilometers ENE 6.9 mph / 11.1 km/h - N/A   Clear
1:15 PM 57.4 °F / 14.1 °C 25.7 °F / -3.5 °C 30% 30.35 in / 1027.7 hPa 10.0 miles / 16.1 kilometers ESE 3.5 mph / 5.6 km/h - N/A   Clear
1:35 PM 58.6 °F / 14.8 °C 28.8 °F / -1.8 °C 32% 30.33 in / 1027.0 hPa 10.0 miles / 16.1 kilometers SE 8.1 mph / 13.0 km/h - N/A   Clear
1:55 PM 59.0 °F / 15.0 °C 28.6 °F / -1.9 °C 31% 30.32 in / 1026.6 hPa 10.0 miles / 16.1 kilometers East 4.6 mph / 7.4 km/h - N/A   Clear
2:15 PM 59.4 °F / 15.2 °C 27.7 °F / -2.4 °C 30% 30.31 in / 1026.3 hPa 10.0 miles / 16.1 kilometers ENE 4.6 mph / 7.4 km/h - N/A   Clear
2:35 PM 59.0 °F / 15.0 °C 27.9 °F / -2.3 °C 31% 30.30 in / 1026.0 hPa 10.0 miles / 16.1 kilometers Calm Calm - N/A   Clear
2:55 PM 60.3 °F / 15.7 °C 29.7 °F / -1.3 °C 31% 30.30 in / 1026.0 hPa 10.0 miles / 16.1 kilometers West 3.5 mph / 5.6 km/h - N/A   Clear
3:15 PM 60.3 °F / 15.7 °C 28.8 °F / -1.8 °C 30% 30.28 in / 1025.3 hPa 10.0 miles / 16.1 kilometers NNW 3.5 mph / 5.6 km/h - N/A   Clear
3:35 PM 60.4 °F / 15.8 °C 27.5 °F / -2.5 °C 29% 30.28 in / 1025.3 hPa 10.0 miles / 16.1 kilometers ENE 3.5 mph / 5.6 km/h - N/A   Clear
3:55 PM 60.8 °F / 16.0 °C 28.2 °F / -2.1 °C 29% 30.27 in / 1024.9 hPa 10.0 miles / 16.1 kilometers Calm Calm - N/A   Clear
4:15 PM 61.7 °F / 16.5 °C 30.0 °F / -1.1 °C 30% 30.27 in / 1024.9 hPa 10.0 miles / 16.1 kilometers NNE 6.9 mph / 11.1 km/h - N/A   Clear
4:35 PM 62.2 °F / 16.8 °C 29.8 °F / -1.2 °C 29% 30.26 in / 1024.6 hPa 10.0 miles / 16.1 kilometers NNW 4.6 mph / 7.4 km/h - N/A   Clear
4:55 PM 62.1 °F / 16.7 °C 29.5 °F / -1.4 °C 29% 30.26 in / 1024.6 hPa 10.0 miles / 16.1 kilometers ENE 5.8 mph / 9.3 km/h - N/A   Clear
5:15 PM 61.9 °F / 16.6 °C 29.5 °F / -1.4 °C 29% 30.26 in / 1024.6 hPa 10.0 miles / 16.1 kilometers North 3.5 mph / 5.6 km/h - N/A   Clear
5:35 PM 62.1 °F / 16.7 °C 30.4 °F / -0.9 °C 30% 30.25 in / 1024.3 hPa 10.0 miles / 16.1 kilometers East 6.9 mph / 11.1 km/h - N/A   Clear
5:55 PM 61.7 °F / 16.5 °C 30.4 °F / -0.9 °C 31% 30.25 in / 1024.3 hPa 10.0 miles / 16.1 kilometers NNE 4.6 mph / 7.4 km/h - N/A   Clear
6:15 PM 61.3 °F / 16.3 °C 30.6 °F / -0.8 °C 31% 30.25 in / 1024.3 hPa 10.0 miles / 16.1 kilometers ENE 9.2 mph / 14.8 km/h - N/A   Clear
6:35 PM 60.3 °F / 15.7 °C 30.4 °F / -0.9 °C 32% 30.25 in / 1024.3 hPa 10.0 miles / 16.1 kilometers ENE 9.2 mph / 14.8 km/h - N/A   Clear
6:55 PM 58.6 °F / 14.8 °C 31.8 °F / -0.1 °C 36% 30.26 in / 1024.6 hPa 10.0 miles / 16.1 kilometers ENE 10.4 mph / 16.7 km/h - N/A   Clear
7:15 PM 56.8 °F / 13.8 °C 32.5 °F / 0.3 °C 40% 30.26 in / 1024.6 hPa 10.0 miles / 16.1 kilometers ENE 9.2 mph / 14.8 km/h - N/A   Clear
7:35 PM 54.3 °F / 12.4 °C 32.7 °F / 0.4 °C 44% 30.26 in / 1024.6 hPa 10.0 miles / 16.1 kilometers ENE 6.9 mph / 11.1 km/h - N/A   Clear
7:55 PM 53.4 °F / 11.9 °C 32.4 °F / 0.2 °C 45% 30.27 in / 1024.9 hPa 10.0 miles / 16.1 kilometers ENE 8.1 mph / 13.0 km/h - N/A   Clear
8:15 PM 52.3 °F / 11.3 °C 32.0 °F / 0.0 °C 46% 30.27 in / 1024.9 hPa 10.0 miles / 16.1 kilometers ENE 6.9 mph / 11.1 km/h - N/A   Clear
8:35 PM 52.0 °F / 11.1 °C 32.0 °F / 0.0 °C 47% 30.27 in / 1024.9 hPa 10.0 miles / 16.1 kilometers ENE 8.1 mph / 13.0 km/h - N/A   Clear
8:55 PM 50.9 °F / 10.5 °C 32.0 °F / 0.0 °C 48% 30.28 in / 1025.3 hPa 10.0 miles / 16.1 kilometers ENE 8.1 mph / 13.0 km/h - N/A   Clear
9:15 PM 51.3 °F / 10.7 °C 31.3 °F / -0.4 °C 46% 30.28 in / 1025.3 hPa 10.0 miles / 16.1 kilometers ENE 8.1 mph / 13.0 km/h - N/A   Clear
9:35 PM 50.4 °F / 10.2 °C 31.5 °F / -0.3 °C 48% 30.29 in / 1025.6 hPa 10.0 miles / 16.1 kilometers ENE 6.9 mph / 11.1 km/h - N/A   Clear
9:55 PM 48.7 °F / 9.3 °C 31.3 °F / -0.4 °C 51% 30.29 in / 1025.6 hPa 10.0 miles / 16.1 kilometers East 6.9 mph / 11.1 km/h - N/A   Clear
10:15 PM 49.3 °F / 9.6 °C 31.1 °F / -0.5 °C 50% 30.30 in / 1026.0 hPa 10.0 miles / 16.1 kilometers ENE 5.8 mph / 9.3 km/h - N/A   Clear
10:35 PM 47.7 °F / 8.7 °C 31.1 °F / -0.5 °C 53% 30.30 in / 1026.0 hPa 10.0 miles / 16.1 kilometers ENE 5.8 mph / 9.3 km/h - N/A   Clear
10:55 PM 48.6 °F / 9.2 °C 30.6 °F / -0.8 °C 50% 30.31 in / 1026.3 hPa 10.0 miles / 16.1 kilometers ENE 4.6 mph / 7.4 km/h - N/A   Scattered Clouds
11:15 PM 46.2 °F / 7.9 °C 32.0 °F / -0.0 °C 58% 30.31 in / 1026.3 hPa 10.0 miles / 16.1 kilometers ENE 4.6 mph / 7.4 km/h - N/A   Scattered Clouds
11:35 PM 45.5 °F / 7.5 °C 31.6 °F / -0.2 °C 58% 30.32 in / 1026.6 hPa 10.0 miles / 16.1 kilometers NE 5.8 mph / 9.3 km/h - N/A   Scattered Clouds
11:55 PM 46.2 °F / 7.9 °C 32.2 °F / 0.1 °C 58% 30.32 in / 1026.6 hPa 10.0 miles / 16.1 kilometers NE 8.1 mph / 13.0 km/h - N/A   Mostly Cloudy